This is the latest recevied weather packets stored in our database for station/object DL9GRB-13. If no packets are shown the sender has not sent any weather packets the latest 10 day(s).
| Time | Temp. | Humidity | Pressure | Rain* | Wind** | Luminosity | Snow |
|---|---|---|---|---|---|---|---|
| 1777808407 | 24.44° C | 54% | 1009.8 hPa | 0 mm | - | 760 W/m² | - |
| 1777808227 | 23.89° C | 55% | 1009.7 hPa | 0 mm | - | 688 W/m² | - |
| 1777808047 | 23.33° C | 56% | 1009.8 hPa | 0 mm | - | 779 W/m² | - |
| 1777807867 | 23.33° C | 57% | 1009.8 hPa | 0 mm | - | 605 W/m² | - |
| 1777807687 | 23.33° C | 57% | 1010 hPa | 0 mm | - | 911 W/m² | - |
| 1777807507 | 23.33° C | 56% | 1009.9 hPa | 0 mm | - | 462 W/m² | - |
| 1777807327 | 23.33° C | 58% | 1009.9 hPa | 0 mm | - | 347 W/m² | - |
| 1777807147 | 23.33° C | 57% | 1009.9 hPa | 0 mm | - | 870 W/m² | - |
| 1777806967 | 23.33° C | 58% | 1009.8 hPa | 0 mm | - | 810 W/m² | - |
| 1777806787 | 22.78° C | 57% | 1009.8 hPa | 0 mm | - | 795 W/m² | - |
| 1777806607 | 22.22° C | 61% | 1009.9 hPa | 0 mm | - | 834 W/m² | - |
| 1777806427 | 21.67° C | 60% | 1009.9 hPa | 0 mm | - | 925 W/m² | - |
| 1777806247 | 21.67° C | 61% | 1010.2 hPa | 0 mm | - | 378 W/m² | - |
| 1777806067 | 21.67° C | 62% | 1010.1 hPa | 0 mm | - | 404 W/m² | - |
| 1777805887 | 21.67° C | 61% | 1009.9 hPa | 0 mm | - | 429 W/m² | - |
| 1777805707 | 22.22° C | 59% | 1010 hPa | 0 mm | - | 371 W/m² | - |
| 1777805527 | 22.22° C | 57% | 1010.1 hPa | 0 mm | - | 301 W/m² | - |
| 1777805347 | 22.22° C | 57% | 1010 hPa | 0 mm | - | 327 W/m² | - |
| 1777805167 | 22.22° C | 59% | 1010.1 hPa | 0 mm | - | 748 W/m² | - |
| 1777804987 | 22.22° C | 59% | 1010.1 hPa | 0 mm | - | 454 W/m² | - |
| 1777804807 | 21.67° C | 59% | 1010 hPa | 0 mm | - | 365 W/m² | - |
| 1777804627 | 21.67° C | 59% | 1010 hPa | 0 mm | - | 746 W/m² | - |
| 1777804447 | 21.67° C | 60% | 1010.2 hPa | 0 mm | - | 794 W/m² | - |
| 1777804267 | 21.11° C | 60% | 1010.2 hPa | 0 mm | - | 219 W/m² | - |
| 1777804087 | 21.11° C | 60% | 1010.1 hPa | 0 mm | - | 761 W/m² | - |
* Rain latest hour (hover to see other rain measurements)
** Current wind speed in m/s (hover to see current wind gust speed)